Location: Corralito
(10.2667°N, 66.9500°W)
Time: 13:51:41
(UTC+00:00)

GPS 2-12 Rocket1 - Pass Details

Date: 07 December 2023
Orbit: 576 x 637 km, 20.0° (Epoch: 04 March)

Event Time Altitude Azimuth Distance (km) Brightness Sun altitude
Exits shadow 09:12:30 40° 328° (NNW) 848 3.3 -19.2°
Maximum altitude 09:13:38 52° 16° (NNE) 712 3.3 -18.9°
Drops below altitude 10° 09:17:52 10° 92° (E) 1,871 6.6 -18.0°
Sets 09:20:14 0° 97° (E) 2,773 8.0 -17.4°
